GW0353 Weather Reports


time (UTC)temp
F
wind
direction
speed
knots
gust
knots
rain 1hr
in
rain 24hr
in
rain mn
in
humidity
%
barometer
mb
20260902165559 56 0 0.9 1.7 0.00 0.00 0.00 36 1022.5
20260902165101 57 93 0.0 1.7 0.00 0.00 0.00 36 1022.5
20260902164624 56 0 0.0 2.6 0.00 0.00 0.00 37 1022.4
20260902164058 56 81 0.0 2.6 0.00 0.00 0.00 37 1022.6
20260902163600 57 81 1.7 2.6 0.00 0.00 0.00 36 1022.4
20260902163109 57 63 0.0 1.7 0.00 0.00 0.00 37 1022.5
20260902162602 56 89 0.0 1.7 0.00 0.00 0.00 37 1022.5
20260902162059 55 127 0.0 0.9 0.00 0.00 0.00 39 1022.7
20260902161616 54 0 0.0 2.6 0.00 0.00 0.00 38 1022.8
20260902161059 54 0 0.0 2.6 0.00 0.00 0.00 38 1022.7
20260902160558 54 49 0.9 2.6 0.00 0.00 0.00 39 1022.6
20260902155558 55 49 0.9 2.6 0.00 0.00 0.00 38 1022.5
20260902155058 56 57 0.9 2.6 0.00 0.00 0.00 37 1022.4
20260902154602 57 63 0.0 2.6 0.00 0.00 0.00 38 1022.3
20260902154058 56 224 0.9 2.6 0.00 0.00 0.00 37 1022.6
20260902153558 55 0 0.0 2.6 0.00 0.00 0.00 38 1022.6
20260902153117 54 251 0.0 2.6 0.00 0.00 0.00 40 1022.5
20260902152557 53 0 0.0 1.7 0.00 0.00 0.00 41 1022.4
20260902152057 52 134 0.0 1.7 0.00 0.00 0.00 46 1022.4
20260902151608 52 115 0.0 1.7 0.00 0.00 0.00 48 1022.4
20260902151059 51 0 0.0 0.9 0.00 0.00 0.00 49 1022.2
20260902150558 50 0 0.0 0.9 0.00 0.00 0.00 51 1022.3
20260902150106 50 135 0.0 0.9 0.00 0.00 0.00 50 1022.3
20260902145558 49 0 0.0 0.9 0.00 0.00 0.00 50 1022.3
20260902145058 48 0 0.0 0.9 0.00 0.00 0.00 54 1022.3
20260902144627 47 94 0.0 0.9 0.00 0.00 0.00 52 1022.3
20260902144058 46 0 0.0 0.0 0.00 0.00 0.00 55 1022.4
20260902143559 45 0 0.0 0.9 0.00 0.00 0.00 55 1022.3
20260902143115 43 0 0.0 0.9 0.00 0.00 0.00 59 1022.1
20260902142559 41 0 0.0 2.6 0.00 0.00 0.00 60 1022.0
20260902142059 41 0 0.0 2.6 0.00 0.00 0.00 59 1022.0
20260902141605 41 0 0.0 0.0 0.00 0.00 0.00 58 1021.9
20260902141058 41 0 0.0 0.9 0.00 0.00 0.00 58 1021.8
20260902140601 41 0 0.0 0.9 0.00 0.00 0.00 57 1021.7
20260902140105 41 171 0.0 0.9 0.00 0.00 0.00 57 1021.8
20260902135558 41 0 0.0 1.7 0.00 0.00 0.00 57 1021.8
20260902135058 40 0 0.0 1.7 0.00 0.00 0.00 56 1022.0
20260902134605 40 185 0.0 1.7 0.00 0.00 0.00 55 1022.0
20260902134058 40 0 0.0 0.9 0.00 0.00 0.00 55 1021.7
20260902133558 40 165 0.0 1.7 0.00 0.00 0.00 54 1022.0
20260902133103 40 0 0.0 1.7 0.00 0.00 0.00 54 1021.7
20260902132558 40 0 0.0 1.7 0.00 0.00 0.00 53 1021.6
20260902132058 40 0 0.0 1.7 0.00 0.00 0.00 54 1021.4
20260902131607 40 162 0.0 1.7 0.00 0.00 0.00 52 1021.5
20260902131151 41 0 0.9 1.7 0.00 0.00 0.00 52 1021.4
20260902130559 41 0 0.0 1.7 0.00 0.00 0.00 49 1021.1
20260902130104 43 255 0.0 1.7 0.00 0.00 0.00 48 1021.3
20260902125558 43 58 0.0 2.6 0.00 0.00 0.00 51 1021.1
20260902125058 42 115 0.0 2.6 0.00 0.00 0.00 48 1021.1
20260902124610 42 233 0.0 1.7 0.00 0.00 0.00 49 1021.3
20260902124100 42 0 0.0 1.7 0.00 0.00 0.00 49 1021.2
20260902123559 43 188 0.0 1.7 0.00 0.00 0.00 49 1021.3
20260902123104 42 54 0.0 1.7 0.00 0.00 0.00 51 1021.3
20260902122600 42 163 0.0 0.9 0.00 0.00 0.00 50 1021.2
20260902122058 42 140 0.0 0.9 0.00 0.00 0.00 49 1021.2
20260902121613 41 165 0.0 2.6 0.00 0.00 0.00 49 1021.3
20260902121058 40 0 0.9 2.6 0.00 0.00 0.00 48 1021.3
20260902120558 41 174 0.0 2.6 0.00 0.00 0.00 48 1021.3
20260902120111 41 0 0.0 3.5 0.00 0.00 0.00 47 1021.2
20260902115558 41 148 0.9 3.5 0.00 0.00 0.00 48 1021.0
20260902115058 41 162 0.0 1.7 0.00 0.00 0.00 47 1021.0
20260902114619 42 236 0.9 1.7 0.00 0.00 0.00 46 1020.9
20260902114058 42 162 0.0 1.7 0.00 0.00 0.00 45 1020.8
20260902113557 42 158 0.0 1.7 0.00 0.00 0.00 46 1020.6
20260902113104 41 0 0.9 3.5 0.00 0.00 0.00 47 1020.6
20260902112559 40 0 0.9 3.5 0.00 0.00 0.00 47 1020.5
20260902112100 41 0 0.0 0.9 0.00 0.00 0.00 46 1020.7
20260902111605 40 154 0.0 0.9 0.00 0.00 0.00 46 1020.5
20260902111058 41 0 0.0 0.9 0.00 0.00 0.00 46 1020.5
20260902110600 41 0 0.0 2.6 0.00 0.00 0.00 45 1020.5
20260902110110 41 0 0.9 2.6 0.00 0.00 0.00 45 1020.5
20260902105602 41 155 0.0 1.7 0.00 0.00 0.00 44 1020.5
20260902105058 41 255 0.0 1.7 0.00 0.00 0.00 45 1020.6
20260902104605 41 191 0.0 1.7 0.00 0.00 0.00 44 1020.6
20260902104058 41 206 0.0 1.7 0.00 0.00 0.00 44 1020.3
20260902103601 42 175 0.0 0.9 0.00 0.00 0.00 43 1020.4
20260902103120 43 0 0.0 0.9 0.00 0.00 0.00 42 1020.3
20260902102559 43 0 0.0 1.7 0.00 0.00 0.00 42 1020.2
20260902102059 43 0 0.0 2.6 0.00 0.00 0.00 41 1020.2
20260902101601 45 227 0.0 2.6 0.00 0.00 0.00 41 1020.2
20260902101058 44 98 0.9 2.6 0.00 0.00 0.00 41 1020.1
20260902100558 43 0 0.0 1.7 0.00 0.00 0.00 41 1020.2
20260902100101 43 0 0.0 1.7 0.00 0.00 0.00 42 1020.4
20260902095601 43 182 0.0 0.9 0.00 0.00 0.00 42 1020.2
20260902095058 45 0 0.0 4.3 0.00 0.00 0.00 40 1020.4
20260902094603 45 0 0.9 4.3 0.00 0.00 0.00 40 1020.4
20260902094059 44 118 2.6 4.3 0.00 0.00 0.00 42 1020.3
20260902093557 45 128 0.0 2.6 0.00 0.00 0.00 42 1020.5
20260902093111 46 249 0.0 2.6 0.00 0.00 0.00 39 1020.6
20260902092558 44 63 0.9 1.7 0.00 0.00 0.00 41 1020.5
20260902092101 44 147 0.0 1.7 0.00 0.00 0.00 43 1020.6
20260902091607 45 246 0.0 2.6 0.00 0.00 0.00 42 1020.6
20260902091100 45 133 0.0 2.6 0.00 0.00 0.00 42 1020.5
20260902090558 44 153 0.0 2.6 0.00 0.00 0.00 44 1020.7
20260902090105 44 0 0.0 2.6 0.00 0.00 0.00 43 1020.8
20260902085558 45 0 0.9 2.6 0.00 0.00 0.00 44 1020.7
20260902085059 43 118 0.9 2.6 0.00 0.00 0.00 45 1020.6
20260902084605 44 0 0.0 0.9 0.00 0.00 0.00 46 1020.6
20260902084059 44 0 0.0 1.7 0.00 0.00 0.00 45 1020.5
20260902083558 44 0 0.0 1.7 0.00 0.00 0.00 45 1020.7
20260902083104 44 0 0.0 1.7 0.00 0.00 0.00 45 1020.8
20260902082558 44 0 0.0 1.7 0.00 0.00 0.00 44 1020.9
20260902082058 45 217 0.0 1.7 0.00 0.00 0.00 44 1020.8
20260902081609 45 0 0.0 1.7 0.00 0.00 0.00 44 1020.9
20260902081058 45 0 0.0 1.7 0.00 0.00 0.00 45 1020.7
20260902080559 46 255 0.0 0.9 0.00 0.00 0.00 42 1020.7
20260902080105 46 207 0.0 1.7 0.00 0.00 0.00 42 1020.6
20260902075557 47 0 0.0 1.7 0.00 0.00 0.00 40 1020.8
20260902075058 48 248 0.0 3.5 0.00 0.00 0.00 40 1020.9
20260902074614 48 77 1.7 5.2 0.00 0.00 0.00 39 1020.6
20260902074058 48 93 2.6 5.2 0.00 0.00 0.00 40 1020.8
20260902073602 48 119 0.0 3.5 0.00 0.00 0.00 41 1020.7
20260902073109 48 0 0.9 4.3 0.00 0.00 0.00 40 1020.8
20260902072557 47 95 0.9 4.3 0.00 0.00 0.00 42 1020.6
20260902072058 47 143 0.0 3.5 0.00 0.00 0.00 43 1020.8
20260902071604 47 110 0.9 3.5 0.00 0.00 0.00 44 1020.6
20260902071058 47 161 1.7 4.3 0.00 0.00 0.00 44 1020.8
20260902070557 48 0 0.0 5.2 0.00 0.00 0.00 44 1020.6
20260902070107 48 55 2.6 5.2 0.00 0.00 0.00 45 1020.8
20260902065558 46 82 0.0 2.6 0.00 0.00 0.00 46 1020.6
20260902065100 47 0 0.0 4.3 0.00 0.00 0.00 46 1020.6
20260902064603 48 0 2.6 5.2 0.00 0.00 0.00 45 1020.6
20260902064059 49 0 0.0 7.0 0.00 0.00 0.00 44 1020.6
20260902063558 49 77 3.5 7.0 0.00 0.00 0.00 45 1020.4
20260902063104 48 63 2.6 5.2 0.00 0.00 0.00 45 1020.4
20260902062558 47 136 0.9 3.5 0.00 0.00 0.00 47 1020.6
20260902062058 47 0 0.9 2.6 0.00 0.00 0.00 48 1020.4
20260902061604 48 0 0.0 1.7 0.00 0.00 0.00 46 1020.6
20260902061059 48 0 0.0 1.7 0.00 0.00 0.00 45 1020.5
20260902060600 48 49 0.0 2.6 0.00 0.00 0.00 46 1020.1
20260902060116 48 0 0.0 2.6 0.00 0.00 0.00 47 1020.3
20260902055558 48 0 0.0 2.6 0.00 0.00 0.00 47 1020.2
20260902055059 48 0 0.9 2.6 0.00 0.00 0.00 48 1020.1
20260902054603 49 0 0.0 1.7 0.00 0.00 0.00 48 1020.2
20260902054058 48 66 0.0 2.6 0.00 0.00 0.00 50 1020.2
20260902053558 48 0 0.0 2.6 0.00 0.00 0.00 49 1020.4
20260902053107 48 0 0.0 2.6 0.00 0.00 0.00 48 1020.5
20260902052557 49 183 0.0 2.6 0.00 0.00 0.00 47 1020.4
20260902052057 50 0 0.9 2.6 0.00 0.00 0.00 46 1020.6
20260902051606 51 133 0.0 4.3 0.00 0.00 0.00 45 1020.6
20260902051059 52 0 0.0 4.3 0.00 0.00 0.00 44 1020.6
20260902050600 51 0 2.6 4.3 0.00 0.00 0.00 44 1020.7
20260902050108 51 163 0.0 5.2 0.00 0.00 0.00 45 1020.9
20260902045557 51 0 2.6 5.2 0.00 0.00 0.00 44 1020.9
20260902045058 51 114 0.0 1.7 0.00 0.00 0.00 46 1020.9
20260902044605 52 254 0.0 0.9 0.00 0.00 0.00 47 1020.9
20260902044058 52 261 0.0 1.7 0.00 0.00 0.00 46 1020.9
20260902043558 52 0 0.0 1.7 0.00 0.00 0.00 44 1020.9
20260902043113 53 68 0.0 1.7 0.00 0.00 0.00 45 1020.8
20260902042603 53 261 0.0 3.5 0.00 0.00 0.00 46 1020.9
20260902042058 53 0 0.0 3.5 0.00 0.00 0.00 46 1020.7
20260902041605 53 220 0.0 4.3 0.00 0.00 0.00 45 1020.6
20260902041057 54 0 0.0 5.2 0.00 0.00 0.00 45 1020.6
20260902040559 54 0 0.0 5.2 0.00 0.00 0.00 44 1020.6
20260902040108 55 0 0.9 5.2 0.00 0.00 0.00 41 1020.5
20260902035557 55 310 0.0 7.8 0.00 0.00 0.00 39 1020.3
20260902035059 55 50 1.7 8.7 0.00 0.00 0.00 37 1020.3
20260902034608 56 53 2.6 10.4 0.00 0.00 0.00 39 1020.2
20260902034058 57 17 1.7 16.5 0.00 0.00 0.00 37 1020.1
20260902033558 57 47 7.8 16.5 0.00 0.00 0.00 34 1019.9
20260902033108 58 192 1.7 5.2 0.00 0.00 0.00 33 1019.7
20260902032558 60 0 0.0 7.8 0.00 0.00 0.00 26 1019.5
20260902032058 61 234 2.6 9.6 0.00 0.00 0.00 18 1019.4
20260902031608 62 182 3.5 12.2 0.00 0.00 0.00 18 1019.5
20260902031101 62 155 6.1 16.5 0.00 0.00 0.00 16 1019.4
20260902030558 63 144 8.7 16.5 0.00 0.00 0.00 16 1019.5
20260902025558 63 129 8.7 13.9 0.00 0.00 0.00 16 1019.4
20260902025101 63 134 5.2 15.6 0.00 0.00 0.00 16 1019.4
20260902024611 63 103 9.6 15.6 0.00 0.00 0.00 16 1019.3
20260902024100 63 150 7.0 17.4 0.00 0.00 0.00 16 1019.3
20260902023558 63 150 8.7 17.4 0.00 0.00 0.00 16 1019.3
20260902023106 63 157 7.8 15.6 0.00 0.00 0.00 16 1019.3
20260902022558 64 131 8.7 15.6 0.00 0.00 0.00 16 1019.0
20260902022101 64 149 3.5 13.9 0.00 0.00 0.00 15 1019.0
20260902021604 64 91 6.1 13.9 0.00 0.00 0.00 16 1019.1
20260902021058 64 124 7.8 13.9 0.00 0.00 0.00 16 1019.1
20260902020558 64 136 4.3 9.6 0.00 0.00 0.00 16 1019.2
20260902020104 64 135 4.3 13.9 0.00 0.00 0.00 15 1019.1
20260902015557 65 164 7.8 13.9 0.00 0.00 0.00 15 1018.9
20260902015057 65 148 6.1 17.4 0.00 0.00 0.00 15 1018.8
20260902014604 66 146 5.2 17.4 0.00 0.00 0.00 14 1018.9
20260902014101 66 69 8.7 17.4 0.00 0.00 0.00 14 1018.9
20260902013558 66 139 5.2 10.4 0.00 0.00 0.00 14 1018.9
20260902013102 67 96 3.5 5.2 0.00 0.00 0.00 15 1018.9
20260902012558 67 162 0.0 11.3 0.00 0.00 0.00 15 1019.0
20260902012057 67 58 4.3 11.3 0.00 0.00 0.00 14 1018.9
20260902011605 68 184 5.2 10.4 0.00 0.00 0.00 13 1019.2
20260902011058 69 199 0.9 6.1 0.00 0.00 0.00 14 1019.0
20260902010558 69 0 2.6 6.1 0.00 0.00 0.00 13 1019.0
20260902010105 69 160 1.7 11.3 0.00 0.00 0.00 13 1019.1
20260902005555 69 259 0.9 11.3 0.00 0.00 0.00 13 1019.2
20260902005057 69 141 3.5 11.3 0.00 0.00 0.00 12 1019.3
20260902004603 69 302 3.5 10.4 0.00 0.00 0.00 13 1019.2
20260902004058 69 160 0.0 14.8 0.00 0.00 0.00 15 1019.4
20260902003600 69 149 5.2 14.8 0.00 0.00 0.00 12 1019.3
20260902003104 69 142 5.2 10.4 0.00 0.00 0.00 13 1019.4
20260902002557 70 131 2.6 7.8 0.00 0.00 0.00 12 1019.3
20260902002058 70 158 0.9 8.7 0.00 0.00 0.00 14 1019.4
20260902001607 70 229 3.5 14.8 0.00 0.00 0.00 13 1019.3
20260902001058 70 219 5.2 14.8 0.00 0.00 0.00 14 1019.3
20260902000558 70 136 5.2 13.0 0.00 0.00 0.00 13 1019.3
20260901235559 71 129 2.6 13.9 0.00 0.00 0.00 13 1019.4
20260901235100 71 158 1.7 11.3 0.00 0.00 0.00 14 1019.7
20260901234616 71 231 3.5 11.3 0.00 0.00 0.00 13 1019.7
20260901234055 71 160 3.5 11.3 0.00 0.00 0.00 13 1019.7
20260901233602 71 163 4.3 10.4 0.00 0.00 0.00 13 1019.7
20260901233108 71 226 2.6 11.3 0.00 0.00 0.00 13 1019.7
20260901232558 71 202 3.5 14.8 0.00 0.00 0.00 13 1019.9
20260901232058 71 63 5.2 14.8 0.00 0.00 0.00 13 1019.7
20260901231605 71 212 4.3 14.8 0.00 0.00 0.00 13 1019.9
20260901231058 72 245 6.1 14.8 0.00 0.00 0.00 12 1019.9
20260901230557 72 256 3.5 13.0 0.00 0.00 0.00 14 1019.8
20260901230105 72 262 7.8 13.0 0.00 0.00 0.00 13 1019.9
20260901225557 72 208 4.3 11.3 0.00 0.00 0.00 12 1019.9
20260901225057 73 223 3.5 9.6 0.00 0.00 0.00 11 1019.9
20260901224605 73 239 3.5 9.6 0.00 0.00 0.00 12 1019.8
20260901224057 73 220 0.9 10.4 0.00 0.00 0.00 14 1019.7
20260901223601 73 162 2.6 10.4 0.00 0.00 0.00 12 1019.8
20260901223105 73 252 4.3 10.4 0.00 0.00 0.00 11 1019.8
20260901222557 73 162 1.7 9.6 0.00 0.00 0.00 14 1019.7
20260901222057 73 217 3.5 12.2 0.00 0.00 0.00 13 1019.8
20260901221608 73 243 2.6 12.2 0.00 0.00 0.00 14 1019.9
20260901221057 74 248 3.5 10.4 0.00 0.00 0.00 14 1019.9
20260901220557 74 207 1.7 10.4 0.00 0.00 0.00 16 1019.8
20260901220118 73 82 2.6 7.8 0.00 0.00 0.00 16 1020.0
20260901215558 73 160 0.9 8.7 0.00 0.00 0.00 16 1019.9
20260901215058 72 0 0.9 15.6 0.00 0.00 0.00 16 1019.9
20260901214606 71 72 3.5 15.6 0.00 0.00 0.00 16 1019.7
20260901214059 71 58 4.3 14.8 0.00 0.00 0.00 18 1019.8
20260901213559 71 70 4.3 10.4 0.00 0.00 0.00 18 1019.9
20260901213112 71 87 5.2 12.2 0.00 0.00 0.00 19 1020.0
20260901212557 70 108 5.2 12.2 0.00 0.00 0.00 19 1020.0
20260901212057 71 59 2.6 9.6 0.00 0.00 0.00 18 1020.1
20260901211604 71 63 1.7 10.4 0.00 0.00 0.00 19 1020.2
20260901211058 70 140 4.3 11.3 0.00 0.00 0.00 19 1020.3
20260901210557 70 53 6.1 11.3 0.00 0.00 0.00 18 1020.4
20260901210104 70 97 2.6 17.4 0.00 0.00 0.00 20 1020.5
20260901205558 69 53 5.2 17.4 0.00 0.00 0.00 20 1020.5
20260901205101 70 53 3.5 12.2 0.00 0.00 0.00 20 1020.4
20260901204605 68 140 6.1 12.2 0.00 0.00 0.00 20 1020.5
20260901204059 68 69 7.0 14.8 0.00 0.00 0.00 21 1020.5
20260901203559 69 252 6.1 14.8 0.00 0.00 0.00 21 1020.6
20260901203111 69 122 6.1 16.5 0.00 0.00 0.00 23 1020.4
20260901202557 68 79 6.1 16.5 0.00 0.00 0.00 23 1020.5
20260901202057 69 47 5.2 11.3 0.00 0.00 0.00 22 1020.6
20260901201605 68 45 6.1 13.9 0.00 0.00 0.00 22 1020.6
20260901201058 68 34 6.1 15.6 0.00 0.00 0.00 24 1020.5
20260901200557 67 37 8.7 15.6 0.00 0.00 0.00 23 1020.5
20260901200106 68 109 6.1 15.6 0.00 0.00 0.00 27 1020.5
20260901195600 68 81 7.8 15.6 0.00 0.00 0.00 29 1020.6
20260901195057 68 165 4.3 14.8 0.00 0.00 0.00 27 1020.5
20260901194607 68 60 6.1 14.8 0.00 0.00 0.00 27 1020.6
20260901194057 68 132 7.0 12.2 0.00 0.00 0.00 27 1020.7
20260901193557 68 64 6.1 12.2 0.00 0.00 0.00 24 1020.7
20260901193116 68 59 5.2 12.2 0.00 0.00 0.00 27 1020.8
20260901192557 68 169 7.0 12.2 0.00 0.00 0.00 26 1020.8
20260901192057 67 50 3.5 12.2 0.00 0.00 0.00 29 1020.8
20260901191606 66 87 5.2 12.2 0.00 0.00 0.00 31 1020.9
20260901191057 66 64 5.2 12.2 0.00 0.00 0.00 29 1021.1
20260901190557 65 144 6.1 14.8 0.00 0.00 0.00 29 1021.0
20260901185558 66 99 6.1 10.4 0.00 0.00 0.00 32 1021.3
20260901185057 65 119 5.2 10.4 0.00 0.00 0.00 31 1021.4
20260901184626 65 111 4.3 9.6 0.00 0.00 0.00 30 1021.4
20260901184058 65 105 6.1 11.3 0.00 0.00 0.00 30 1021.3
20260901183558 64 112 5.2 11.3 0.00 0.00 0.00 30 1021.4
20260901183106 65 77 6.1 9.6 0.00 0.00 0.00 29 1021.5
20260901182557 64 162 4.3 10.4 0.00 0.00 0.00 31 1021.5
20260901182057 64 136 3.5 10.4 0.00 0.00 0.00 32 1021.6
20260901181607 64 165 5.2 11.3 0.00 0.00 0.00 31 1021.7
20260901181058 64 114 6.1 11.3 0.00 0.00 0.00 32 1021.8
20260901180558 64 358 4.3 9.6 0.00 0.00 0.00 32 1021.7
20260901180105 64 138 5.2 9.6 0.00 0.00 0.00 34 1021.7
20260901175557 64 68 4.3 8.7 0.00 0.00 0.00 33 1021.7
20260901175057 65 144 4.3 8.7 0.00 0.00 0.00 32 1021.7
20260901174607 65 104 3.5 8.7 0.00 0.00 0.00 34 1021.6
20260901174057 66 120 0.9 5.2 0.00 0.00 0.00 31 1021.7
20260901173556 66 44 0.9 5.2 0.00 0.00 0.00 33 1021.7
20260901173104 66 55 0.9 3.5 0.00 0.00 0.00 38 1021.8
20260901172557 65 24 0.0 3.5 0.00 0.00 0.00 36 1021.7
20260901172058 65 83 0.9 6.1 0.00 0.00 0.00 34 1021.9
20260901171605 64 39 0.9 6.1 0.00 0.00 0.00 36 1021.8
20260901171057 64 87 1.7 6.1 0.00 0.00 0.00 34 1021.6
20260901170558 64 0 0.9 4.3 0.00 0.00 0.00 36 1021.7
20260901170120 64 51 0.9 3.5 0.00 0.00 0.00 36 1021.7